Weather History for Corpus Christi, TX

Change the Weather History Date:

Sunday, January 13, 2013

  Actual Average Record
Temperature  
Mean Temperature 61 °F 57 °F  
Max Temperature 73 °F 67 °F 85 °F (1950)
Min Temperature 49 °F 47 °F 18 °F (1975)
Degree Days  
Heating Degree Days 4 9  
Month to date heating degree days 103 117  
Since 1 July heating degree days 278 468  
Cooling Degree Days 0 1  
Month to date cooling degree days 11 13  
Year to date cooling degree days 11 13  
Growing Degree Days 10 (Base 50)    
Moisture  
Dew Point 45 °F    
Average Humidity 65    
Maximum Humidity 93    
Minimum Humidity 37    
Precipitation  
Precipitation 0.01 in 0.05 in 1.25 in (1967)
Month to date precipitation 1.17 0.67  
Year to date precipitation 1.17 0.67  
Snow  
Snow 0.00 in - - ()
Month to date snowfall 0.0  
Since 1 July snowfall 0.0  
Snow Depth 0.00 in    
Sea Level Pressure  
Sea Level Pressure 29.96 in    
Wind  
Wind Speed 17 mph (North)    
Max Wind Speed 32 mph    
Max Gust Speed 39 mph    
Visibility 8 miles    
Events Rain    
T = Trace of Precipitation, MM = Missing Value Source: NWS Daily Summary

Daily Weather History Graph

Daily Weather History Graph

Search for Another Location

Airport:

Trip Planner

Search our weather history database for the weather conditions in past years. The results will help you decide how hot, cold, wet, or windy it might be!

Date:

Astronomy

Jan. 13, 2013 Rise Set
Actual Time 7:22 AM CST 5:55 PM CST
Civil Twilight 6:57 AM CST 6:20 PM CST
Nautical Twilight 6:28 AM CST 6:49 PM CST
Astronomical Twilight 5:59 AM CST 7:18 PM CST
Moon 8:36 AM CST (1/13) 8:18 PM CST (1/13)
Length of Visible Light 11h 23m
Length of Day
10h 33m
Waxing Crescent, 5% of the Moon is Illuminated
Jan 13
Waxing Crescent
Jan 18
First Quarter
Jan 26
Full
Feb 3
Last Quarter
Feb 10
New

Hourly Weather History & Observations

Time (CST) Temp. Dew Point Humidity Pressure Visibility Wind Dir Wind Speed Gust Speed Precip Events Conditions
12:33 AM 73.4 °F 69.8 °F 88% 29.72 in 6.0 mi SSE 3.5 mph - N/A   Overcast
12:51 AM 73.0 °F 69.1 °F 87% 29.72 in 6.0 mi SE 5.8 mph - N/A   Overcast
1:51 AM 72.0 °F 69.1 °F 91% 29.74 in 6.0 mi ESE 3.5 mph - N/A   Overcast
2:51 AM 73.0 °F 69.1 °F 87% 29.75 in 3.0 mi ESE 4.6 mph - 0.01 in Rain Light Rain
3:07 AM 64.4 °F 62.6 °F 94% 29.77 in 5.0 mi NNW 26.5 mph 33.4 mph 0.00 in Rain Light Rain
3:12 AM 59.0 °F 55.4 °F 88% 29.79 in 5.0 mi North 27.6 mph 35.7 mph 0.00 in Rain Light Rain
3:24 AM 57.2 °F 53.6 °F 88% 29.80 in 5.0 mi North 24.2 mph 34.5 mph 0.00 in Rain Light Rain
3:35 AM 55.4 °F 51.8 °F 88% 29.80 in 4.0 mi North 26.5 mph 34.5 mph 0.00 in Rain Light Rain
3:51 AM 54.0 °F 51.1 °F 90% 29.81 in 5.0 mi North 26.5 mph 34.5 mph 0.00 in Rain Light Rain
4:34 AM 51.8 °F 48.2 °F 88% 29.84 in 7.0 mi North 27.6 mph 35.7 mph 0.00 in   Light Drizzle
4:51 AM 51.1 °F 48.0 °F 89% 29.86 in 7.0 mi North 28.8 mph 34.5 mph 0.00 in   Light Drizzle
5:51 AM 48.9 °F 46.0 °F 90% 29.89 in 5.0 mi North 26.5 mph 36.8 mph 0.00 in Rain Light Rain
6:23 AM 48.2 °F 44.6 °F 87% 29.92 in 9.0 mi North 26.5 mph 39.1 mph 0.00 in   Overcast
6:51 AM 48.9 °F 44.1 °F 83% 29.94 in 10.0 mi North 24.2 mph 28.8 mph 0.00 in   Overcast
7:51 AM 48.9 °F 41.0 °F 74% 29.99 in 10.0 mi North 23.0 mph - N/A   Overcast
8:51 AM 50.0 °F 39.9 °F 68% 30.03 in 10.0 mi North 18.4 mph 31.1 mph N/A   Overcast
9:51 AM 52.0 °F 39.9 °F 63% 30.06 in 10.0 mi NNW 21.9 mph - N/A   Overcast
10:51 AM 53.1 °F 39.9 °F 61% 30.08 in 10.0 mi NNW 20.7 mph - N/A   Overcast
11:51 AM 55.9 °F 39.0 °F 53% 30.06 in 10.0 mi North 18.4 mph 26.5 mph N/A   Overcast
12:51 PM 57.0 °F 37.9 °F 49% 30.05 in 10.0 mi NNW 21.9 mph - N/A   Mostly Cloudy
1:51 PM 59.0 °F 37.9 °F 46% 30.03 in 10.0 mi North 17.3 mph - N/A   Partly Cloudy
2:51 PM 59.0 °F 35.6 °F 42% 30.03 in 10.0 mi North 17.3 mph - N/A   Partly Cloudy
3:51 PM 59.0 °F 34.0 °F 39% 30.04 in 10.0 mi North 16.1 mph - N/A   Partly Cloudy
4:51 PM 57.9 °F 35.1 °F 42% 30.05 in 10.0 mi North 15.0 mph - N/A   Partly Cloudy
5:51 PM 55.9 °F 35.1 °F 45% 30.06 in 10.0 mi North 12.7 mph - N/A   Partly Cloudy
6:51 PM 55.0 °F 37.0 °F 51% 30.07 in 10.0 mi North 9.2 mph - N/A   Scattered Clouds
7:51 PM 55.0 °F 36.0 °F 49% 30.08 in 10.0 mi NNE 13.8 mph - N/A   Mostly Cloudy
8:51 PM 54.0 °F 37.0 °F 53% 30.11 in 10.0 mi North 15.0 mph - N/A   Overcast
9:51 PM 53.1 °F 36.0 °F 52% 30.10 in 10.0 mi North 18.4 mph - N/A   Overcast
10:51 PM 51.8 °F 35.6 °F 54% 30.09 in 10.0 mi NNE 18.4 mph 25.3 mph N/A   Overcast
11:51 PM 51.1 °F 35.1 °F 54% 30.09 in 10.0 mi NNE 16.1 mph - N/A   Overcast